Arcata, CA

8:50 PM PDT on March 22, 2017 (GMT -0700)
Arcata

Weather History for KACV - May, 2014

Change the Weather History Date:

Sunday, May 4, 2014

  Actual Average Record
Temperature  
Mean Temperature 54 °F -  
Max Temperature 61 °F 56 °F 88 °F (2013)
Min Temperature 51 °F 41 °F 36 °F (2002)
Degree Days  
Heating Degree Days 11    
Growing Degree Days 4 (Base 50)    
Moisture  
Dew Point 50 °F    
Average Humidity 86    
Maximum Humidity 94    
Minimum Humidity 70    
Precipitation  
Precipitation 0.14 in - - ()
Sea Level Pressure  
Sea Level Pressure 30.03 in    
Wind  
Wind Speed 6 mph (SSW)    
Max Wind Speed 17 mph    
Max Gust Speed 22 mph    
Visibility 8 miles    
Events Rain    
Averages and records for this station are not official NWS values.
T = Trace of Precipitation, MM = Missing Value Source: NWS Daily Summary

Daily Weather History Graph

Daily Weather History Graph

Search for Another Location

Airport or City:

Trip Planner

Search our weather history database for the weather conditions in past years. The results will help you decide how hot, cold, wet, or windy it might be!

Date:

Astronomy

May. 04, 2014 Rise Set
Actual Time 6:10 AM PDT 8:16 PM PDT
Civil Twilight 5:40 AM PDT 8:46 PM PDT
Nautical Twilight 5:03 AM PDT 9:23 PM PDT
Astronomical Twilight 4:23 AM PDT 10:04 PM PDT
Moon 10:39 AM PDT (5/4) 12:25 AM PDT (5/4)
Length of Visible Light 15h 06m
Length of Day
14h 05m
Waxing Crescent, 28% of the Moon is Illuminated
May 4
Waxing Crescent
May 6
First Quarter
May 14
Full
May 21
Last Quarter
May 28
New

Hourly Weather History & Observations

Time (PDT) Temp. Dew Point Humidity Pressure Visibility Wind Dir Wind Speed Gust Speed Precip Events Conditions
12:53 AM 55.9 °F 48.9 °F 77% 30.02 in 10.0 mi SE 6.9 mph - N/A   Overcast
1:32 AM 55.9 °F 48.0 °F 75% 30.00 in 10.0 mi SE 5.8 mph - N/A   Overcast
2:48 AM 55.4 °F 48.2 °F 77% 29.99 in 10.0 mi SE 6.9 mph - 0.00 in   Overcast
2:53 AM 55.0 °F 48.9 °F 80% 30.01 in 9.0 mi SE 6.9 mph - 0.00 in   Overcast
3:15 AM 55.0 °F 48.9 °F 80% 29.99 in 10.0 mi SSE 3.5 mph - N/A   Overcast
3:53 AM 54.0 °F 51.1 °F 90% 30.01 in 7.0 mi Calm Calm - 0.01 in   Overcast
4:04 AM 54.0 °F 51.1 °F 90% 30.00 in 2.5 mi Calm Calm - 0.01 in Rain Light Rain
4:13 AM 54.0 °F 51.1 °F 90% 30.00 in 3.0 mi SSE 3.5 mph - 0.02 in Rain Light Rain
4:53 AM 53.1 °F 51.1 °F 93% 30.01 in 6.0 mi SE 5.8 mph - 0.02 in   Overcast
5:53 AM 54.0 °F 50.0 °F 86% 30.00 in 10.0 mi SE 4.6 mph - N/A   Overcast
6:53 AM 54.0 °F 50.0 °F 86% 30.00 in 10.0 mi Calm Calm - N/A   Overcast
7:27 AM 55.0 °F 50.0 °F 83% 29.99 in 9.0 mi SSE 5.8 mph - N/A   Overcast
7:53 AM 55.0 °F 51.1 °F 86% 30.01 in 10.0 mi South 5.8 mph - N/A   Overcast
8:01 AM 55.9 °F 51.1 °F 84% 29.99 in 10.0 mi South 5.8 mph - N/A   Overcast
8:53 AM 55.0 °F 51.1 °F 86% 30.02 in 9.0 mi SW 9.2 mph - 0.01 in   Overcast
9:04 AM 55.0 °F 51.1 °F 86% 30.01 in 2.5 mi WSW 17.3 mph 21.9 mph 0.01 in Rain Light Rain
9:12 AM 54.0 °F 51.1 °F 90% 30.01 in 1.8 mi SSW 12.7 mph - 0.02 in Rain Light Rain
9:18 AM 54.0 °F 51.1 °F 90% 30.01 in 3.0 mi SSW 8.1 mph - 0.02 in Rain Light Rain
9:33 AM 55.0 °F 52.0 °F 89% 30.02 in 10.0 mi SSW 5.8 mph - 0.02 in   Overcast
9:44 AM 55.9 °F 52.0 °F 87% 30.02 in 8.0 mi SW 5.8 mph - 0.02 in   Overcast
9:53 AM 55.9 °F 52.0 °F 87% 30.04 in 5.0 mi SSW 9.2 mph - 0.02 in   Overcast
10:53 AM 55.0 °F 51.1 °F 86% 30.05 in 4.0 mi South 9.2 mph - 0.00 in Rain Light Rain
11:50 AM 53.6 °F 48.2 °F 82% 30.04 in 10.0 mi West 4.6 mph - 0.01 in   Overcast
11:53 AM 54.0 °F 48.0 °F 80% 30.06 in 7.0 mi WNW 4.6 mph - 0.01 in Rain Light Rain
12:13 PM 55.0 °F 48.0 °F 77% 30.04 in 10.0 mi Calm Calm - 0.00 in   Overcast
12:53 PM 57.9 °F 48.0 °F 70% 30.06 in 10.0 mi SW 4.6 mph - 0.00 in   Overcast
1:53 PM 57.9 °F 48.9 °F 72% 30.06 in 10.0 mi SW 11.5 mph - N/A   Overcast
2:53 PM 57.9 °F 52.0 °F 81% 30.06 in 10.0 mi SW 10.4 mph - N/A   Overcast
3:53 PM 57.0 °F 50.0 °F 77% 30.06 in 10.0 mi SW 6.9 mph - N/A   Overcast
4:53 PM 57.0 °F 52.0 °F 83% 30.06 in 10.0 mi SW 8.1 mph - 0.00 in   Overcast
5:53 PM 55.9 °F 51.1 °F 84% 30.06 in 10.0 mi SW 10.4 mph - N/A   Overcast
6:53 PM 55.9 °F 50.0 °F 80% 30.05 in 9.0 mi SW 6.9 mph - N/A   Overcast
7:19 PM 54.0 °F 51.1 °F 90% 30.03 in 2.0 mi SSW 8.1 mph - 0.03 in Rain Rain
7:23 PM 54.0 °F 51.1 °F 90% 30.03 in 1.8 mi SSW 5.8 mph - 0.03 in Rain Rain
7:29 PM 53.1 °F 50.0 °F 89% 30.03 in 2.5 mi SW 3.5 mph - 0.04 in Rain Light Rain
7:37 PM 53.1 °F 50.0 °F 89% 30.03 in 1.8 mi WNW 4.6 mph - 0.06 in Rain Light Rain
7:40 PM 53.1 °F 50.0 °F 89% 30.03 in 2.0 mi West 3.5 mph - 0.06 in Rain Light Rain
7:53 PM 53.1 °F 51.1 °F 93% 30.05 in 10.0 mi WNW 3.5 mph - 0.06 in   Overcast
8:53 PM 53.1 °F 51.1 °F 93% 30.06 in 10.0 mi Calm Calm - 0.01 in Rain Light Rain
9:41 PM 53.1 °F 50.0 °F 89% 30.05 in 10.0 mi South 3.5 mph - 0.00 in   Overcast
9:50 PM 51.8 °F 50.0 °F 94% 30.06 in 10.0 mi SSE 3.5 mph - 0.00 in   Overcast
9:53 PM 52.0 °F 50.0 °F 93% 30.07 in 10.0 mi SSE 3.5 mph - 0.00 in   Overcast
10:19 PM 52.0 °F 50.0 °F 93% 30.06 in 9.0 mi SSE 4.6 mph - N/A   Overcast
10:53 PM 53.1 °F 51.1 °F 93% 30.07 in 6.0 mi SSE 4.6 mph - N/A   Overcast
11:06 PM 52.0 °F 50.0 °F 93% 30.05 in 8.0 mi South 5.8 mph - N/A   Overcast
11:53 PM 53.1 °F 50.0 °F 89% 30.07 in 9.0 mi SSE 6.9 mph - 0.00 in Rain Light Rain